sat.trackr.live / text

‹ back to catalog

STARLINK-4493

NORAD 53533 · 2022-101G

PAYLOAD ACTIVE UNKNOWN

§ Identity

Operator
Country
US
Launch date
2022-08-19
Launch site
AFETR
Launch vehicle
Mass (kg)
RCS (m²)

Purposes: comms

External: N2YO · Heavens-Above · Gunter

§ Orbital elements

Epoch: 2026-09-17T07:07:34.635360Z

Period
94.01 min
Inclination
53.1585°
Eccentricity
0.0001060
Mean motion
15.31705293 rev/d
Perigee alt
470.0 km
Apogee alt
471.5 km
Semi-major
6,848.9 km
B*
4.4183e-5
RAAN
282.7900°
Arg perigee
81.9307°
Mean anomaly
278.1815°
Rev number
22,524

§ Raw data

STARLINK-44931 53533U 22101G   26260.29692865  .00001006  00000+0  44183-4 0  99982 53533  53.1585 282.7900 0001060  81.9307 278.1815 15.31705293225244

JSON: /api/v1/satellites/53533 · /tle

For live sub-satellite position, see the globe view (requires WebGL).

§ Visibility from observer

Set your observer location to see the next 7 days of passes ≥ 10°. The values pass through the URL so the page stays shareable.

No JS? Fill the form by hand. The geolocation button needs JavaScript.